IRIDIUM 96 [S]

Last updated on Fri Jul 15 2016 17:38:29 GMT+0000 (Coordinated Universal Time)

1 27376U 02005E 16197.26103057 .00000223 00000-0 72641-4 0 9991 2 27376 86.4003 99.9746 0002928 110.0321 250.1191 14.34219254767825
UTC large
Height (km)
Speed (km/s)
/
Latitude / Longitude
Inclination (degrees)
Orbital Period (minutes)
Azimuth
Elevation
Range (km)
Doppler Factor

Next 0 passes for location: London (51.5072 / 0.1276)

Sorry there are no passes over London.